Theta_e
313 313 313 312 311 311 311 312 312 311 310 308 307 308 308 308 308 308 307 306 305 307 308 308 309 311 313 312 311 310 311 315 319 319 319 315 311 312 308 310 314 324 340 348 344 341 335 332 333 336 341 344 345 346 348 347 346 348 353 351 343 346 348 348 354 351 356 363 363 362 361 363 363 361 360 359 359 357 357 355 351 351 351 351 350 349 348 347
313 313 312 311 310 309 310 310 311 310 310 308 308 308 308 309 308 308 308 306 305 306 307 308 308 309 312 312 311 311 314 319 321 319 320 314 312 311 307 311 315 324 338 343 340 336 331 331 333 335 338 341 345 346 347 347 346 349 354 350 345 350 349 347 352 350 355 362 362 363 361 362 362 361 360 361 361 358 358 355 352 351 351 351 351 349 349 347
312 312 312 311 310 309 308 308 309 310 310 309 309 309 309 309 309 309 308 307 305 306 307 308 308 309 311 312 313 312 315 321 322 322 324 319 316 311 308 312 314 323 336 339 334 331 331 333 333 333 334 337 343 344 345 347 348 349 351 352 349 350 349 347 350 349 352 360 364 363 361 362 361 360 360 362 360 358 359 356 353 352 351 350 349 349 350 348
313 312 312 311 311 311 310 309 308 309 310 310 310 310 310 309 309 308 308 307 306 305 307 307 308 308 310 312 313 314 317 323 323 327 328 324 320 311 308 312 314 325 336 334 330 329 331 332 332 330 330 332 335 340 343 344 348 349 349 352 349 347 349 346 346 346 349 358 363 363 362 363 360 359 361 362 360 360 358 354 352 351 350 349 347 349 350 348
312 312 312 311 312 312 312 311 309 308 309 310 310 311 310 310 310 308 307 307 307 306 306 307 308 308 310 312 313 315 320 321 320 330 326 322 320 311 309 313 315 327 335 331 329 329 330 331 329 325 324 325 329 334 340 344 346 346 348 350 347 347 347 344 343 343 346 354 363 363 362 362 360 360 361 361 362 363 359 352 352 350 349 348 346 348 350 349
312 312 312 311 312 312 312 311 309 309 309 310 311 311 310 311 310 309 308 307 307 306 306 308 308 308 310 311 315 319 322 314 320 328 320 318 319 311 309 312 319 332 335 331 330 328 328 327 324 323 320 322 327 330 336 343 344 345 347 346 345 344 344 343 340 340 344 352 364 364 359 360 360 361 361 359 362 362 358 351 350 349 349 348 348 348 348 347
312 312 312 311 311 312 311 311 310 310 310 311 312 311 310 311 310 310 308 307 307 306 307 308 308 309 310 313 317 321 320 312 323 326 317 318 317 309 309 316 328 336 332 329 329 326 326 324 322 320 319 322 326 327 335 340 343 344 345 344 344 343 342 341 338 339 342 348 361 361 358 361 361 361 360 359 361 360 355 352 350 351 352 350 348 346 346 347
311 311 312 311 311 311 311 311 312 311 311 311 312 311 311 311 311 311 310 308 308 307 308 308 308 309 311 318 322 320 316 314 326 327 318 316 313 310 317 326 335 334 327 327 328 326 324 322 322 320 319 322 324 327 333 337 340 343 344 343 342 342 342 340 336 338 341 346 356 359 360 362 360 360 360 359 361 357 354 352 349 350 350 349 346 346 348 349
311 311 311 311 311 311 311 312 312 311 311 312 312 311 311 311 312 312 311 310 308 308 308 308 309 309 313 319 321 314 317 321 328 327 319 318 319 319 327 332 331 328 326 327 328 326 325 322 322 320 320 322 325 326 330 333 337 339 342 342 341 343 341 338 335 335 341 347 354 361 362 361 359 359 361 361 359 356 353 351 350 349 347 347 346 346 348 347
311 311 311 311 311 311 311 311 312 311 312 312 311 311 311 312 313 313 313 311 309 307 307 308 308 311 316 321 319 314 321 329 331 327 324 327 327 327 331 330 327 326 326 327 326 325 324 322 320 321 323 324 325 324 327 332 336 339 339 340 340 341 338 336 334 334 342 348 353 360 362 360 360 360 362 361 357 354 354 354 352 350 348 348 346 348 350 349
311 311 311 311 311 311 311 311 312 312 312 312 311 311 312 314 315 315 314 312 310 308 307 309 309 314 320 320 318 317 326 335 333 327 330 331 327 327 328 328 327 326 326 325 326 325 322 322 321 322 323 324 325 326 326 330 336 339 337 338 339 338 337 337 338 339 346 351 353 358 361 361 361 360 362 360 356 354 355 356 354 350 349 348 347 347 350 350
311 311 311 311 311 311 311 311 311 312 312 311 311 311 314 315 316 316 315 313 310 308 308 308 310 317 322 318 317 319 328 336 331 327 331 329 326 327 328 328 327 324 325 325 324 323 322 322 322 321 323 324 325 328 329 329 334 336 336 337 340 338 338 341 343 343 347 354 354 356 360 362 365 361 360 358 355 355 355 357 356 352 351 349 348 348 349 351
311 310 311 311 311 311 311 311 312 312 312 311 311 313 315 314 315 316 316 313 309 308 308 309 314 319 322 321 320 319 327 334 329 328 329 328 328 327 327 328 327 324 324 323 323 323 321 321 321 321 325 327 328 329 329 331 331 336 337 338 339 336 338 348 346 345 350 354 353 357 355 358 366 361 359 358 354 356 357 357 355 353 352 349 349 348 349 350
310 310 310 310 311 311 310 311 312 312 312 311 312 314 315 313 314 316 316 312 309 309 308 310 317 322 322 320 321 320 324 328 326 328 328 328 328 325 324 325 324 324 323 322 322 321 320 321 320 322 325 326 330 331 331 331 332 337 337 335 337 328 333 351 348 347 355 352 353 358 349 352 363 360 357 358 355 358 358 357 356 355 353 350 350 349 348 350
310 310 310 310 311 310 310 311 312 312 312 311 312 314 313 311 313 315 313 310 309 309 310 314 319 323 322 320 324 322 320 324 326 326 325 326 326 324 324 323 323 323 322 322 322 321 321 320 320 322 324 326 329 330 332 332 333 338 330 327 334 326 332 353 349 348 356 352 355 356 345 349 361 360 357 357 356 359 359 356 356 354 354 351 350 349 347 348
310 309 310 310 310 310 311 312 312 312 312 311 313 315 312 310 311 311 310 310 309 310 315 320 321 322 323 321 325 326 322 324 327 325 325 325 325 325 324 322 323 322 321 322 321 321 320 320 320 321 323 326 329 330 331 328 328 335 330 322 326 325 328 344 348 349 353 353 355 356 351 353 358 359 357 357 356 357 359 357 356 355 355 352 350 350 347 348
310 310 310 310 311 311 311 312 312 312 312 312 314 314 313 312 312 311 311 313 314 316 321 324 322 322 324 321 323 325 325 325 326 327 325 325 326 326 324 323 322 322 322 321 320 321 320 319 321 320 323 325 328 331 326 319 319 327 330 325 325 327 325 331 345 350 350 353 354 355 357 355 357 358 357 356 356 357 360 357 356 355 355 353 350 349 348 349
310 311 311 311 311 311 312 312 312 312 312 313 314 314 314 313 315 317 318 320 322 322 323 323 322 321 318 319 320 323 324 323 325 328 327 326 328 327 326 325 323 322 322 321 320 320 319 319 321 321 321 324 329 331 322 318 320 321 325 323 322 326 325 328 340 348 351 352 353 354 354 355 357 359 357 356 355 357 358 357 356 355 355 354 352 349 349 349
311 311 311 311 312 311 312 312 312 312 312 314 315 315 316 315 318 322 322 323 324 322 321 321 322 318 316 319 320 320 320 320 323 328 328 328 328 327 328 327 323 322 321 320 320 319 319 319 320 319 319 322 329 330 326 326 327 327 328 326 322 321 324 332 341 348 351 349 351 353 350 353 358 359 358 355 356 356 357 357 357 356 355 354 353 350 350 350
311 311 311 312 312 312 313 313 313 312 312 315 318 319 320 320 321 322 321 321 320 318 317 318 318 318 318 320 320 319 317 318 321 327 329 328 328 328 328 326 323 321 320 320 321 320 319 318 318 320 320 323 327 330 331 331 332 332 332 329 325 322 324 333 338 342 350 347 347 351 349 350 353 357 359 355 355 357 357 358 359 358 356 355 355 353 352 350
312 311 312 312 313 313 313 313 313 312 312 314 317 321 319 318 317 318 318 317 317 317 315 315 317 317 318 319 319 319 317 316 318 325 330 328 328 327 327 326 323 322 321 320 321 321 319 318 317 320 323 323 325 329 332 332 332 332 330 326 323 323 325 330 330 334 345 344 341 347 345 344 348 351 355 355 356 358 356 357 358 357 356 355 356 354 353 351
312 313 314 313 314 314 314 314 312 312 312 313 317 320 316 317 317 317 316 315 316 316 315 315 316 316 317 318 318 318 316 315 317 326 330 327 326 325 325 326 325 325 322 320 322 320 318 318 319 320 323 326 329 331 332 333 333 330 329 325 321 323 325 326 326 329 338 337 337 342 339 338 342 344 349 354 354 356 356 355 355 356 357 356 355 355 355 354
313 314 314 315 315 314 314 314 312 312 313 315 319 318 317 317 317 316 315 316 316 315 314 314 315 315 316 317 317 317 317 316 318 324 329 327 324 323 324 326 327 326 323 321 322 318 317 319 322 322 324 330 331 332 332 332 332 330 328 322 320 325 323 319 324 330 336 335 335 338 335 334 339 339 343 351 351 352 352 353 354 356 356 354 354 354 354 354
314 315 315 316 315 314 314 312 312 314 315 317 319 317 317 316 316 317 315 316 317 315 315 315 314 315 316 315 315 317 316 316 317 321 325 326 323 321 324 326 327 326 323 322 322 319 319 321 323 324 326 330 331 331 332 329 327 328 329 325 322 326 324 321 325 330 331 331 334 333 324 326 334 336 339 346 349 350 351 353 355 357 357 355 354 354 353 354
315 315 316 316 314 313 312 312 314 316 316 317 318 317 316 316 317 316 315 318 316 315 316 315 314 315 314 313 314 316 316 314 315 319 324 325 321 320 322 324 326 326 324 323 322 321 323 324 325 326 327 328 329 330 330 327 323 323 328 330 328 329 328 326 327 325 321 320 329 329 317 319 329 333 338 346 351 351 352 355 355 357 359 357 357 355 353 353
315 316 317 316 314 312 313 315 315 314 316 318 317 316 316 316 316 315 317 318 313 312 315 314 314 314 313 313 314 314 313 313 315 319 322 322 320 320 321 323 324 324 324 323 323 321 323 326 325 325 326 325 329 331 330 330 323 320 326 331 332 332 330 327 326 321 314 316 327 330 320 317 326 336 346 351 354 356 354 355 355 356 358 356 357 356 354 352
316 317 317 316 313 312 316 318 315 314 317 318 317 316 317 317 315 315 317 314 310 312 315 313 312 312 312 312 312 311 311 313 316 317 318 318 318 318 320 322 322 323 325 323 319 320 325 327 324 324 325 324 328 329 330 332 324 321 327 331 331 331 330 329 326 321 319 320 325 326 324 316 320 338 353 353 355 358 356 356 356 356 357 355 355 355 354 353
317 317 318 317 314 313 315 315 316 318 317 316 317 317 318 316 314 317 318 314 311 313 314 313 312 311 311 312 312 312 313 314 315 315 316 316 317 317 318 321 321 322 327 323 318 321 325 327 326 325 325 324 328 330 331 332 326 326 330 330 330 331 331 331 326 322 322 321 316 318 323 316 318 339 354 352 352 354 355 354 354 355 355 355 354 353 354 354
317 318 319 317 315 314 314 313 317 319 316 315 317 317 317 316 316 318 317 314 313 312 312 312 311 311 312 312 312 313 314 314 315 315 314 315 316 316 317 320 321 322 325 323 321 323 326 326 326 327 326 326 328 331 332 330 329 330 329 329 329 329 329 329 327 322 320 320 315 315 319 315 318 333 342 345 347 347 352 351 350 351 352 354 354 352 353 354
317 318 318 317 317 317 315 315 316 316 316 316 317 318 318 317 318 317 314 313 312 312 312 312 312 312 312 313 313 314 315 314 315 314 315 315 315 316 316 317 321 323 325 325 323 324 323 324 326 326 326 326 329 331 330 329 329 330 328 328 326 326 328 327 325 322 318 318 317 315 318 316 319 331 337 341 344 346 349 349 348 348 348 351 354 353 352 352
316 316 316 317 318 318 318 318 318 316 317 317 318 320 318 317 318 315 313 313 312 312 313 313 313 312 312 314 313 314 315 314 315 315 316 316 315 316 316 318 320 321 323 323 323 324 322 323 325 323 321 324 328 328 328 329 329 328 328 326 321 320 322 320 319 320 318 317 316 316 319 315 318 331 341 343 346 346 347 348 348 348 347 349 351 352 353 352
314 314 314 315 315 316 317 319 318 317 317 318 319 320 318 316 315 313 312 313 312 313 313 313 313 313 313 314 314 314 314 314 315 316 316 315 316 316 316 318 319 318 317 318 319 321 320 321 322 319 319 322 325 325 324 325 327 328 326 321 317 316 318 316 316 317 316 315 315 317 318 315 321 336 343 344 346 345 346 347 347 346 347 348 348 350 353 353
314 313 313 313 313 316 317 318 318 318 319 319 320 320 318 314 313 314 313 312 312 312 313 313 313 314 313 313 314 314 315 314 315 315 315 315 316 315 315 316 317 316 315 316 316 315 315 318 318 318 318 318 321 322 319 320 324 325 323 318 316 316 317 317 316 316 315 313 315 319 318 317 327 339 343 344 344 344 345 345 345 346 346 347 347 348 350 352
314 314 313 313 314 315 317 318 318 318 318 320 320 319 316 313 314 314 313 313 313 313 313 312 313 313 313 313 313 314 314 314 315 315 315 315 315 314 315 315 315 317 317 316 315 313 311 313 315 316 316 316 319 320 318 320 323 325 326 323 317 316 316 316 315 314 314 312 314 318 317 318 326 337 340 341 342 342 343 343 344 346 345 347 348 348 349 352
315 315 315 316 316 315 315 316 316 317 318 319 318 317 315 313 313 313 312 313 313 313 313 313 313 313 313 314 314 314 314 313 314 316 315 315 315 314 315 314 315 317 317 314 314 314 312 312 314 316 315 316 318 318 318 320 321 324 326 323 317 318 318 314 313 313 312 312 314 314 318 325 333 340 340 339 340 341 341 342 343 344 345 345 348 348 349 351
318 317 317 318 316 314 313 313 314 317 319 318 316 315 313 313 313 312 313 313 313 313 313 313 313 312 311 313 314 315 314 314 315 315 314 314 314 314 314 314 314 315 316 315 315 315 311 311 315 316 315 317 317 317 318 318 317 322 322 318 320 324 322 315 313 315 312 312 313 314 323 334 336 338 339 339 340 341 340 340 340 341 344 344 345 347 347 350
321 320 318 317 315 313 312 311 314 318 320 317 316 314 313 313 313 312 313 312 312 313 313 312 312 311 310 311 313 314 314 314 315 314 314 313 313 314 315 314 313 314 315 315 316 316 313 311 315 317 316 316 316 316 318 317 319 320 318 319 324 325 323 318 315 315 312 313 315 315 322 329 327 333 340 340 341 341 339 339 339 339 340 341 344 345 346 349
322 321 318 317 314 313 312 312 315 319 319 317 317 315 313 313 312 312 312 312 311 312 313 312 311 312 312 311 312 315 315 313 314 314 313 314 313 313 315 315 313 314 314 314 316 317 315 311 313 317 317 316 316 316 316 317 319 318 317 322 323 318 317 317 316 315 313 314 316 316 320 325 325 331 339 339 340 341 339 339 337 336 336 337 340 342 345 347
321 320 318 316 314 314 313 313 317 319 317 316 316 314 313 312 312 313 312 312 312 313 314 313 313 314 314 313 313 315 315 313 314 314 314 314 313 312 314 314 314 314 314 314 316 317 317 314 311 315 318 316 317 317 314 315 318 318 319 321 322 318 315 316 316 315 312 312 317 320 322 325 331 337 339 339 340 339 339 338 336 334 333 333 334 338 341 343
320 317 317 315 314 314 314 316 318 317 316 316 315 314 314 313 312 312 313 313 313 314 314 314 314 315 315 315 315 315 315 315 315 315 314 314 313 312 313 314 315 315 313 315 316 317 318 316 311 314 316 315 315 315 315 315 316 317 317 316 318 319 319 319 316 315 313 311 316 323 324 327 336 341 338 338 339 337 337 337 334 332 331 331 331 333 337 339
318 316 317 315 314 314 314 316 316 315 315 315 314 314 313 314 313 312 313 313 313 314 314 315 314 315 314 315 315 315 316 316 315 315 315 314 314 314 313 313 314 315 315 315 315 316 318 317 312 312 313 313 314 315 316 315 315 317 316 316 316 317 316 317 316 316 315 312 315 320 322 331 341 341 336 337 336 336 336 334 333 331 330 329 330 330 332 335
317 316 316 314 313 314 316 315 314 314 314 313 312 312 313 314 313 313 313 313 314 314 314 315 315 315 315 315 315 316 316 316 316 316 315 314 314 313 313 313 315 315 315 314 314 314 318 319 315 312 312 313 314 315 314 315 315 317 317 317 319 317 316 314 314 315 314 314 316 317 324 337 343 339 336 337 335 334 334 333 332 331 329 328 328 328 329 330
316 315 315 314 314 314 315 315 314 314 313 312 312 312 312 314 313 313 313 313 313 314 314 314 314 315 315 315 315 315 315 316 316 316 315 314 313 312 312 313 315 316 316 316 314 314 316 319 317 314 315 315 315 315 315 315 316 316 316 317 318 317 317 315 317 319 315 313 315 317 332 344 342 336 336 335 335 334 333 332 332 330 329 327 327 327 327 327
314 315 315 314 315 314 315 315 314 314 313 312 312 312 311 312 312 313 313 313 314 314 314 314 314 314 314 314 315 315 315 315 315 315 315 314 312 312 311 313 315 316 316 317 316 314 315 318 318 315 314 315 314 315 315 315 316 315 316 317 316 317 319 317 320 322 318 317 316 315 330 343 341 336 335 333 334 334 332 332 331 330 330 327 326 326 326 326
315 317 314 313 315 314 314 314 314 314 314 313 312 312 312 311 311 312 312 312 313 313 314 313 313 313 314 314 315 315 315 316 315 314 314 313 312 311 311 312 314 315 315 316 316 315 317 319 320 318 314 314 316 316 315 315 316 315 315 316 316 317 319 318 318 317 316 322 322 319 330 343 342 338 334 334 334 333 332 332 331 329 329 327 326 325 324 325
316 317 315 314 314 314 313 314 314 314 314 314 313 312 312 311 311 311 312 312 312 313 313 313 313 313 314 314 315 315 314 315 315 315 315 314 313 312 311 311 312 314 315 316 315 315 318 318 321 321 317 317 318 318 316 315 315 314 313 314 315 316 319 320 318 317 318 322 326 329 337 343 342 337 335 334 333 333 332 331 330 330 328 327 326 325 324 324
316 316 316 316 315 314 314 313 314 314 314 314 314 313 312 311 311 311 311 312 312 312 313 313 313 314 314 315 315 315 315 315 315 316 315 314 313 312 311 311 312 314 315 315 313 315 318 315 317 319 316 316 317 316 314 314 314 313 312 312 314 317 320 320 317 320 324 322 327 338 341 340 339 337 334 333 332 332 332 329 329 329 328 328 327 325 324 324
317 315 315 316 315 314 314 313 313 314 313 313 313 313 312 312 312 312 311 311 312 312 313 313 313 314 314 315 315 316 317 316 316 316 315 315 314 313 312 312 312 313 314 312 312 315 317 314 315 316 314 314 314 313 313 313 312 313 312 312 314 316 319 320 318 323 327 324 329 340 341 338 338 335 331 331 330 330 330 329 328 328 327 328 327 326 324 324
316 315 313 314 314 313 313 313 314 313 314 314 314 314 313 312 311 312 311 312 312 312 313 313 313 313 313 315 316 317 318 317 317 317 316 315 314 313 314 314 313 313 313 312 313 315 316 315 314 314 314 313 313 312 312 312 311 312 312 312 313 316 319 321 321 324 330 331 334 338 337 336 334 331 329 329 327 328 328 328 327 326 326 326 327 326 325 324
317 316 315 314 314 314 312 312 314 313 313 314 314 313 313 312 312 311 311 313 312 312 313 313 312 313 313 314 316 316 316 316 316 316 315 315 315 314 314 314 314 313 313 313 314 314 316 316 314 314 313 312 312 312 311 311 312 312 312 312 313 315 317 321 323 326 329 332 334 335 335 334 331 329 328 327 327 328 328 327 326 325 325 325 325 324 324 324
319 318 319 317 313 314 314 313 313 314 313 314 314 313 313 312 312 311 312 312 313 312 312 312 312 313 313 314 315 314 313 313 314 313 313 314 314 313 314 314 314 315 315 315 315 315 316 316 314 313 313 311 312 312 311 311 311 311 312 313 313 315 318 322 326 328 328 329 330 331 333 333 330 328 328 328 328 327 327 327 326 324 323 323 322 322 322 322
320 317 317 317 314 314 315 313 314 315 314 314 314 314 313 311 311 312 313 312 312 312 312 312 313 314 314 314 315 313 312 312 312 311 311 312 312 312 313 313 313 315 316 315 315 316 316 315 313 312 313 311 311 313 312 310 310 311 312 314 315 316 318 322 325 327 328 327 327 328 330 330 330 329 329 328 327 326 326 325 325 324 323 321 320 320 319 319
Wind_Speed
16 15 15 15 16 16 16 16 16 15 14 14 13 12 12 12 13 13 12 10 10 10 10 11 10 9 10 11 10 9 9 7 7 8 12 11 9 8 8 17 23 29 26 20 20 18 16 14 14 14 11 8 6 5 6 6 4 5 4 2 0 3 5 6 8 6 3 7 9 10 8 7 9 7 5 6 7 9 9 6 7 7 7 12 19 28 30 29
16 16 16 16 16 16 16 16 16 15 15 14 13 13 12 12 13 13 13 11 10 10 10 11 10 9 9 10 10 10 8 7 11 14 15 12 10 9 11 20 27 31 27 22 23 21 17 14 15 14 10 6 5 6 6 5 5 5 3 1 1 5 5 5 7 7 6 6 9 9 9 7 8 8 7 8 9 10 9 9 9 10 12 15 22 27 29 29
17 17 17 16 16 16 16 15 15 15 15 15 14 14 14 13 13 12 13 12 10 10 10 11 10 10 8 8 10 10 8 8 11 9 6 5 8 12 16 24 29 32 26 22 23 20 16 15 17 14 8 6 5 6 6 5 5 5 3 2 3 5 4 5 6 8 8 5 8 9 9 7 8 8 6 8 10 10 9 10 10 12 13 16 20 25 28 28
18 18 18 17 17 17 16 15 14 15 15 15 15 15 15 15 14 13 13 12 11 10 10 10 10 9 7 7 9 7 7 9 4 3 2 3 6 15 20 26 31 32 23 19 20 16 15 16 16 13 8 6 5 6 6 6 4 3 4 1 5 3 3 6 6 8 8 4 5 9 9 8 8 7 7 10 10 8 8 9 10 13 16 18 20 24 26 26
18 18 18 18 18 18 17 16 16 15 16 16 16 16 17 16 15 13 13 12 11 10 9 10 9 9 7 6 7 5 6 6 3 5 2 4 7 19 23 27 32 29 21 18 18 15 15 15 14 11 8 6 7 7 8 8 4 3 3 1 2 0 3 5 6 7 7 4 6 9 10 8 8 6 7 10 7 4 7 7 9 14 19 20 21 23 24 24
17 17 18 18 18 18 18 17 17 17 17 17 17 17 18 18 16 14 13 12 11 10 9 9 8 7 6 5 5 4 6 2 4 4 5 1 12 22 25 28 30 25 19 19 18 16 15 14 12 9 8 7 9 9 7 9 6 5 4 2 2 2 3 4 5 5 5 2 6 8 8 9 9 7 7 9 2 2 4 5 9 14 18 22 23 22 21 22
16 16 17 17 18 18 18 17 18 19 18 18 18 18 19 18 17 15 13 12 10 10 9 8 7 6 4 3 3 5 8 4 4 4 4 5 17 24 26 28 27 21 20 21 19 16 14 14 12 9 8 6 9 9 5 8 8 6 3 2 3 3 3 4 5 4 3 1 5 6 7 10 10 7 8 8 1 2 4 6 10 14 19 22 21 19 19 20
16 16 16 17 17 18 18 18 19 19 19 19 20 20 20 19 18 15 13 12 10 10 9 8 6 5 2 2 5 6 7 2 4 2 2 12 19 24 27 25 22 20 21 22 19 17 14 14 13 8 8 6 6 8 5 7 10 9 6 2 4 4 4 4 4 2 2 0 7 8 7 9 9 6 8 9 4 4 6 8 12 15 18 19 19 19 18 19
17 17 16 17 17 18 19 19 19 20 19 20 21 21 21 19 18 16 14 12 10 10 9 7 6 3 1 3 7 5 2 5 3 3 8 16 20 25 25 21 20 20 21 21 19 18 13 12 13 7 6 4 5 8 7 8 7 7 8 5 6 6 5 5 5 2 1 2 7 10 8 9 9 6 7 8 6 7 9 10 13 15 17 17 17 18 17 17
18 18 17 17 18 18 19 19 19 20 20 21 22 22 22 20 19 16 14 11 10 10 9 7 5 3 3 6 8 4 4 5 3 9 14 17 21 24 21 19 21 19 18 19 19 18 12 10 11 5 5 3 6 7 9 8 1 3 7 7 8 8 6 5 5 2 3 5 7 8 7 9 10 6 5 8 8 9 11 12 13 14 15 16 16 16 16 17
19 18 18 18 18 19 18 19 19 20 20 21 22 23 22 20 18 15 13 10 10 11 9 7 5 5 6 7 8 1 6 3 7 12 14 18 21 22 18 19 21 18 17 16 17 17 13 9 8 5 3 3 6 7 8 7 2 1 4 6 8 9 6 4 3 2 5 5 7 7 6 9 8 6 6 9 11 11 12 12 12 13 13 15 16 15 14 15
19 19 19 19 19 19 18 18 19 20 20 21 22 22 21 19 16 13 11 9 9 10 9 7 6 5 6 7 6 1 6 3 9 12 14 16 16 15 15 19 18 16 15 14 15 15 11 8 9 8 1 2 6 5 5 6 4 4 5 5 7 8 6 1 1 4 6 5 7 7 6 7 8 7 9 12 11 12 13 13 12 12 12 13 15 13 12 14
19 19 19 19 19 19 19 19 19 19 19 20 21 20 18 16 14 11 8 7 8 8 8 7 7 4 7 5 1 2 4 6 11 12 13 13 11 11 12 15 14 12 13 12 13 12 9 8 11 9 2 4 5 3 2 6 6 6 6 6 5 7 6 5 4 6 6 6 8 7 4 5 8 8 12 13 12 13 13 12 12 11 11 12 13 12 12 14
19 19 18 19 19 19 19 19 19 19 18 19 19 17 15 14 11 7 4 5 7 8 8 8 7 5 7 2 4 3 4 7 11 13 13 12 12 12 12 11 10 9 9 10 11 9 6 7 10 7 4 6 2 2 4 7 7 6 6 6 6 7 6 8 5 8 6 5 9 8 2 4 8 10 12 12 13 14 13 13 13 11 11 11 12 12 12 14
20 19 19 19 20 20 19 19 18 18 17 18 16 13 11 10 6 2 4 7 8 9 9 8 6 5 6 3 4 4 6 6 11 14 12 13 13 12 12 11 9 9 7 7 8 8 5 7 9 7 5 4 3 5 7 6 7 7 6 7 8 6 6 8 6 8 5 5 10 9 1 4 7 11 12 12 13 14 13 13 13 12 12 12 11 12 12 13
20 20 20 20 20 20 19 18 18 17 16 16 11 7 9 9 8 8 9 9 10 11 9 6 7 6 6 1 6 5 7 6 10 14 13 12 11 11 13 12 10 9 8 6 7 8 6 7 7 7 6 5 6 8 6 6 8 7 7 9 10 8 6 7 6 6 4 6 10 9 3 3 6 10 11 11 13 13 12 13 14 12 12 12 11 11 12 12
21 21 22 21 20 20 19 18 17 16 15 11 5 6 10 12 13 13 12 10 10 9 5 2 4 6 4 2 5 7 9 7 9 14 14 10 8 12 15 11 10 10 9 7 7 8 8 7 6 6 6 6 8 8 7 8 8 8 9 8 9 9 6 6 7 7 7 7 8 9 4 3 6 10 11 11 12 12 11 12 13 12 11 12 11 12 12 13
21 22 24 22 20 19 18 17 16 15 13 6 2 7 11 13 13 10 9 8 6 5 4 3 3 5 3 5 5 6 8 8 9 13 14 10 9 13 13 9 10 12 10 8 8 9 9 6 6 6 7 8 8 9 8 9 10 11 11 8 7 8 6 5 6 7 9 7 7 8 6 4 6 9 11 12 12 12 11 11 12 12 12 12 12 12 13 13
23 24 25 23 20 19 17 15 15 14 9 2 8 9 10 10 6 3 5 6 5 4 1 3 6 3 1 7 5 6 7 8 9 11 14 13 12 12 10 9 11 12 10 8 9 10 8 6 7 7 9 10 10 12 9 3 7 12 13 10 7 9 7 4 5 5 7 7 6 7 6 6 9 9 10 12 13 12 11 10 10 12 12 12 12 12 12 13
25 25 25 22 20 19 16 14 13 12 5 7 9 4 4 3 2 4 6 7 8 8 6 3 6 6 1 4 4 4 6 8 7 11 15 16 15 12 9 10 11 10 9 8 10 10 9 8 9 9 10 12 13 14 7 2 3 8 12 11 7 8 7 6 6 5 5 6 5 6 6 6 7 9 11 11 13 13 13 13 11 11 12 12 12 12 13 13
27 25 23 21 20 18 15 14 11 8 2 9 9 5 1 3 3 1 1 7 9 9 9 6 6 8 5 3 2 1 3 8 9 11 16 16 16 13 9 10 10 8 9 9 9 9 9 9 11 12 11 11 13 12 6 2 3 5 8 9 7 7 5 6 5 4 4 5 5 5 6 6 6 7 11 12 13 14 14 15 13 13 13 11 12 13 12 12
26 24 22 21 19 17 14 12 8 2 3 8 9 5 3 5 5 3 4 6 4 5 7 6 6 7 7 7 5 3 4 7 10 11 14 16 15 11 9 10 10 8 9 10 8 8 9 10 12 13 10 9 12 11 9 7 6 6 6 8 8 7 6 6 5 5 5 5 5 6 6 6 7 7 10 12 13 12 13 15 14 15 14 11 12 12 12 12
25 23 22 21 18 15 12 7 1 3 4 3 6 1 3 4 4 3 5 6 2 3 5 6 7 7 6 6 4 5 8 9 12 12 14 15 13 9 9 10 9 8 10 11 9 8 9 10 11 12 9 10 12 12 12 8 6 7 7 7 7 8 6 5 6 7 6 4 2 4 5 5 6 7 9 11 12 10 12 14 13 14 14 13 13 12 13 13
23 21 20 18 16 13 7 1 4 3 1 3 2 3 3 4 5 4 5 6 2 3 2 2 4 5 3 1 4 7 7 5 8 12 16 15 11 7 9 10 9 8 9 12 12 10 8 7 9 12 11 13 12 11 12 8 7 8 8 8 7 9 7 1 5 6 5 5 4 3 5 5 6 8 7 9 10 9 9 11 11 11 12 13 14 12 12 13
21 20 17 16 14 9 2 5 4 1 2 4 2 2 3 6 4 4 5 5 2 3 3 3 2 2 0 1 4 5 5 4 3 10 16 13 10 9 7 7 7 7 10 12 12 10 7 5 9 12 13 14 12 11 12 10 8 8 10 11 5 6 7 3 4 5 5 7 7 6 7 5 7 6 4 6 7 7 6 7 9 9 10 11 11 12 13 13
20 18 14 13 11 5 4 3 3 1 4 5 2 2 4 7 3 4 5 4 4 3 3 4 2 3 2 3 5 3 6 5 5 7 13 8 6 7 6 6 5 6 9 11 8 6 6 8 11 13 13 15 13 10 12 11 8 6 9 12 7 4 6 5 5 6 5 3 6 6 7 4 8 4 3 3 5 5 5 5 6 7 9 10 10 11 13 13
19 16 12 9 7 4 2 1 2 3 4 3 2 3 6 6 3 5 5 4 5 2 2 3 1 2 2 1 4 3 5 9 7 6 7 4 4 6 6 7 6 4 6 7 6 5 6 9 12 13 13 14 11 9 11 12 10 4 7 10 12 8 8 7 6 7 5 1 3 7 7 5 5 5 4 3 6 6 5 3 5 7 8 10 10 11 12 13
18 15 11 6 5 4 2 1 2 3 2 3 1 4 7 4 4 5 6 1 5 1 1 4 2 0 1 2 4 2 5 9 7 5 4 4 4 6 8 8 8 8 8 7 6 6 9 10 12 13 12 10 10 10 11 12 11 2 6 5 10 9 9 8 8 8 4 1 5 8 6 6 4 6 4 5 7 6 5 2 2 4 8 10 11 11 13 14
16 13 10 6 4 4 3 1 3 1 3 2 3 5 6 3 4 5 5 2 3 1 1 2 2 2 4 5 4 3 5 3 1 5 6 6 4 5 6 4 7 9 10 11 7 6 9 9 9 11 11 9 11 12 10 12 11 2 4 5 6 6 8 7 8 8 5 4 8 9 9 8 4 6 3 4 6 4 3 2 1 1 4 8 11 13 14 14
13 11 9 7 4 3 2 1 2 1 1 3 5 6 5 5 4 5 2 3 2 2 2 0 2 3 7 8 5 5 5 5 5 7 6 5 5 5 2 0 5 6 9 11 9 4 6 5 6 7 5 4 9 11 9 11 10 3 3 7 6 6 6 6 6 7 6 7 10 11 10 9 5 4 4 3 5 4 3 2 3 3 5 6 9 13 14 13
10 10 9 8 4 3 4 1 1 3 5 5 6 6 5 5 5 3 4 3 1 3 2 1 3 5 8 8 6 6 6 7 5 6 7 6 7 6 3 3 6 6 7 8 8 5 7 7 6 2 2 2 6 8 7 10 10 7 6 7 7 6 5 6 6 6 7 7 10 13 11 10 7 3 5 5 6 6 5 4 4 4 5 6 7 10 13 14
9 11 10 9 7 4 5 4 4 8 8 6 6 5 5 4 2 2 5 1 2 2 2 1 4 6 7 7 7 6 6 6 4 4 6 5 5 4 1 1 3 5 7 7 7 7 7 7 7 5 1 3 7 7 7 8 10 9 8 8 7 7 6 7 8 7 8 6 7 12 11 7 3 5 5 6 7 7 6 6 6 6 5 6 7 8 11 13
7 11 11 11 10 6 6 7 7 7 6 5 4 5 6 2 3 3 4 1 1 4 2 1 3 7 10 9 8 7 7 6 4 4 5 4 5 5 5 6 4 4 4 7 9 8 6 6 7 8 6 4 8 9 7 7 10 10 9 9 8 7 8 9 9 7 9 7 5 7 8 7 5 6 4 6 8 7 7 7 7 7 6 5 6 7 10 12
3 9 12 12 12 12 8 6 4 4 3 4 6 6 4 2 5 1 3 6 4 3 1 2 4 8 9 7 6 4 5 6 4 3 5 3 3 4 4 7 7 6 4 5 7 8 7 6 6 6 4 3 7 7 4 4 10 11 9 9 8 7 7 8 8 8 9 9 7 7 6 6 6 5 4 6 8 8 8 9 9 9 8 6 5 4 6 12
2 6 10 10 11 14 13 6 3 2 2 5 6 3 0 4 4 2 4 5 3 2 3 4 6 9 9 6 6 2 3 3 4 4 5 4 4 4 3 5 8 7 5 4 5 5 5 5 5 3 3 1 4 2 5 5 8 10 9 10 9 7 6 5 6 8 9 9 8 7 3 2 6 7 5 6 8 10 10 11 12 12 11 9 8 8 3 6
3 4 7 8 9 14 14 8 3 2 4 7 4 3 4 4 4 4 4 4 4 3 1 6 5 6 8 6 6 5 2 3 4 4 6 6 7 7 5 4 7 7 5 3 3 3 3 5 6 4 3 1 1 1 2 5 4 7 10 10 6 4 5 4 4 6 8 8 8 8 5 6 7 7 6 5 8 11 12 13 14 14 14 12 10 10 9 4
2 3 4 9 12 14 13 9 4 4 6 5 1 5 3 4 5 5 5 5 4 4 5 4 1 1 6 7 6 7 6 5 3 2 3 4 4 7 6 4 5 7 7 5 1 0 1 4 6 4 5 5 1 1 2 3 5 4 7 8 5 2 5 5 3 7 9 8 7 9 10 9 7 5 5 5 8 12 13 14 14 15 15 14 12 10 10 10
3 4 1 10 15 13 11 8 5 6 5 1 6 5 3 4 6 5 5 6 3 4 6 1 2 2 3 6 6 5 4 4 3 3 3 2 2 6 7 3 4 7 8 6 3 1 3 3 7 4 4 7 3 4 5 5 4 4 2 3 4 5 7 6 5 7 10 9 7 9 11 7 3 3 4 5 9 12 12 13 14 15 15 14 13 12 11 10
4 5 1 10 15 11 10 8 7 7 2 3 6 5 3 5 6 7 5 4 3 4 4 3 3 1 1 3 6 5 1 2 4 3 2 1 2 5 7 4 4 7 8 7 4 2 3 2 5 5 5 6 5 4 4 6 5 4 3 3 4 5 5 6 7 6 8 9 8 9 10 6 3 4 5 7 9 10 11 12 13 14 14 13 12 12 11 11
4 4 3 11 16 11 8 7 4 1 3 4 4 4 3 4 6 8 7 4 3 3 3 3 2 2 4 4 4 4 3 4 4 2 3 2 2 4 7 6 6 8 7 5 3 2 3 3 2 6 7 6 4 1 2 1 1 5 6 7 6 5 3 4 7 6 6 8 8 9 8 6 6 5 5 8 9 10 11 12 12 12 13 13 13 12 12 12
4 2 4 13 16 9 7 3 3 4 4 5 5 5 4 4 5 6 8 6 5 5 5 5 4 4 4 4 4 3 3 5 4 3 4 3 2 4 7 8 8 8 7 3 2 4 2 3 2 6 6 4 4 5 4 4 5 3 2 2 3 5 5 6 9 7 6 7 5 8 8 7 7 3 4 7 8 9 11 11 11 12 14 13 13 13 13 14
3 1 5 14 13 7 5 3 5 4 4 5 5 5 4 3 4 5 6 6 5 6 6 6 7 5 4 4 4 4 4 4 3 3 4 5 6 6 7 9 7 7 6 1 2 4 3 3 1 4 4 5 7 4 2 2 4 3 2 3 2 4 5 7 8 7 7 6 3 4 6 6 5 2 4 7 8 10 11 11 10 11 13 13 13 14 15 15
3 3 6 12 9 6 3 5 5 4 6 5 3 5 5 4 6 6 6 6 5 5 5 6 6 5 5 4 4 5 4 4 4 4 5 6 7 7 7 9 8 6 5 1 1 3 3 2 2 5 5 5 6 3 1 1 3 2 2 3 2 3 3 4 5 4 7 8 5 5 6 5 4 4 5 7 9 10 10 11 11 10 11 12 13 14 14 14
4 3 5 12 9 5 2 4 4 5 6 5 5 7 6 7 9 8 8 8 6 4 5 6 6 5 5 4 4 4 2 2 3 4 4 4 5 6 7 9 9 6 5 4 3 3 2 1 1 4 6 6 6 6 4 3 2 1 3 4 3 3 3 5 4 4 6 4 4 6 5 6 6 7 6 8 10 11 11 11 11 10 10 10 11 12 12 13
1 1 4 10 11 5 3 4 3 4 6 6 7 6 6 7 8 8 9 10 8 6 5 5 5 5 5 4 5 5 4 3 3 3 3 5 5 5 7 8 9 8 7 7 7 5 2 2 2 3 5 6 5 4 2 2 3 3 3 4 4 4 3 4 3 6 7 3 3 5 6 10 8 9 9 9 10 11 11 11 10 11 11 10 10 10 11 12
1 1 2 4 6 6 5 4 3 3 4 4 5 5 5 6 6 7 8 8 8 8 6 5 4 3 4 4 6 7 6 6 5 4 4 4 4 4 6 7 7 8 7 6 6 5 1 2 4 4 2 1 3 4 3 2 2 3 3 4 4 4 3 4 5 5 5 5 2 3 12 16 12 11 10 9 9 9 10 10 10 10 10 11 11 10 11 11
1 2 3 2 2 3 4 4 4 3 2 1 2 3 3 5 5 5 6 6 5 5 5 6 4 2 4 4 5 7 7 7 7 6 5 4 3 3 4 5 7 8 6 4 5 3 2 2 3 5 7 6 6 6 4 3 3 3 3 3 4 4 3 2 2 2 2 4 5 9 16 16 13 12 11 9 9 9 9 9 9 9 9 10 10 11 13 13
2 2 2 2 2 2 3 4 4 4 4 3 2 1 3 5 5 5 6 5 4 3 2 4 6 5 5 3 2 5 6 6 6 5 4 3 2 1 1 4 6 7 5 3 4 3 2 2 3 4 6 7 6 5 3 2 4 3 2 3 3 3 3 3 3 5 5 1 8 13 16 14 11 11 11 10 9 8 9 8 8 9 9 9 10 12 13 13
2 3 3 2 1 3 4 2 2 4 5 4 3 3 4 6 6 5 4 4 6 6 4 5 7 6 5 3 2 4 4 2 4 4 2 2 1 1 1 1 3 5 4 3 4 2 2 2 3 4 6 6 4 4 3 2 3 3 3 3 2 3 5 6 6 7 7 8 14 17 15 13 11 11 11 11 9 9 9 8 8 9 9 10 10 12 12 13
2 2 2 2 4 4 3 2 2 4 5 3 3 4 3 5 7 6 4 4 5 6 5 8 9 8 8 7 5 6 7 6 5 5 2 1 1 1 1 1 2 4 4 3 2 2 3 1 3 3 4 5 3 2 2 1 3 4 4 3 3 4 5 6 7 8 9 11 15 17 15 11 9 10 11 9 8 8 8 8 9 9 9 10 10 12 12 12
3 3 2 1 4 2 1 3 2 3 4 3 3 4 4 5 7 7 6 7 6 7 7 8 9 8 8 9 8 8 8 7 6 6 3 3 3 2 2 3 3 2 3 2 1 2 2 2 4 4 3 4 4 2 2 3 4 4 5 4 4 4 5 6 5 3 5 10 14 13 11 9 9 10 10 9 7 7 8 8 8 8 9 10 10 11 11 11
2 1 3 2 2 0 1 2 1 1 4 4 4 4 4 6 6 4 5 5 5 7 7 6 6 5 6 8 8 7 5 5 5 5 3 3 3 2 2 3 3 3 3 2 1 1 1 2 4 4 3 4 5 2 2 5 6 5 5 5 4 3 4 6 5 3 3 7 9 7 7 9 10 9 9 9 8 6 6 6 6 7 8 8 9 10 10 11
Wind_Direction
346 344 343 342 341 340 339 338 336 336 337 337 335 333 333 332 332 330 327 326 322 313 311 314 314 318 322 334 335 332 339 311 281 244 236 256 239 229 211 183 174 163 160 163 162 160 162 170 167 171 177 178 204 184 177 206 210 221 235 255 45 64 55 34 22 25 80 139 149 155 157 149 143 142 135 148 150 138 139 139 123 110 95 103 123 136 143 150
344 343 342 340 340 339 338 337 335 336 336 337 335 333 332 328 329 327 324 324 318 309 304 305 310 313 314 327 328 327 331 284 267 259 248 259 245 215 185 178 175 166 164 168 169 168 167 166 163 172 183 177 185 172 177 189 205 235 250 242 78 61 61 36 15 14 40 114 143 151 153 153 147 145 157 158 145 145 146 139 130 118 110 114 131 140 144 151
343 342 341 340 340 337 337 338 338 336 334 336 336 334 331 326 325 323 322 320 315 307 297 299 305 308 311 324 325 326 324 282 268 256 244 268 228 202 179 177 176 168 169 174 175 175 170 162 163 175 186 187 187 180 186 180 192 227 241 233 88 65 66 59 15 10 33 90 145 147 150 159 151 152 170 160 150 159 157 149 147 136 132 137 144 146 147 153
342 341 340 340 338 336 336 338 339 337 332 332 334 332 329 326 322 320 319 314 312 303 291 294 299 304 312 324 327 330 305 274 259 126 98 348 194 186 178 176 175 171 173 179 178 180 170 161 169 181 190 191 182 188 197 182 180 202 226 256 90 82 39 58 23 16 37 69 136 143 154 165 158 161 171 162 159 169 171 163 157 147 146 151 153 152 152 155
342 341 340 339 336 334 333 333 335 335 331 331 331 329 328 326 322 319 314 308 307 300 289 287 294 302 308 327 335 330 285 256 100 79 347 316 182 175 175 175 174 173 177 182 179 180 171 168 177 186 199 195 177 194 205 190 205 234 224 296 88 7 4 35 17 21 31 62 126 152 162 157 154 164 179 177 170 168 179 169 152 149 151 157 158 155 155 157
340 340 339 337 335 332 331 330 331 330 330 331 329 328 328 325 321 315 308 304 300 295 287 282 290 296 301 332 330 289 268 279 65 4 332 298 176 170 172 173 171 173 180 180 176 178 175 177 183 188 205 202 186 198 203 189 208 241 206 192 235 291 332 347 355 21 18 64 137 160 158 148 160 167 185 194 185 66 166 155 143 148 152 157 158 158 159 160
339 339 337 335 333 331 330 330 331 329 329 329 326 327 327 323 318 312 305 298 291 290 282 279 282 281 309 335 287 246 254 293 41 338 346 151 167 165 169 169 168 175 182 179 177 180 179 183 191 195 203 200 196 200 197 187 204 241 227 191 238 280 292 312 345 17 358 33 135 158 161 159 172 168 177 193 181 89 144 141 138 142 150 154 157 161 162 162
337 336 335 333 332 331 329 329 330 328 329 329 326 326 325 321 316 310 304 294 283 280 274 274 268 261 307 280 264 244 238 327 46 340 115 149 160 161 163 163 170 179 184 184 180 181 182 189 197 199 206 202 197 195 188 196 207 230 241 252 256 267 282 298 325 346 327 74 134 158 178 174 177 156 167 180 159 146 143 138 138 140 151 155 159 163 162 164
335 335 334 332 331 330 328 327 327 328 330 328 327 327 324 321 315 308 300 289 275 268 263 262 254 239 181 235 267 255 207 32 49 161 143 146 150 156 159 162 175 179 183 186 183 185 185 196 198 201 230 207 184 194 194 211 206 211 233 261 268 270 287 296 312 318 207 168 150 165 176 175 174 152 158 162 146 150 146 142 142 146 155 158 162 164 164 166
334 334 332 331 330 329 328 327 326 327 328 328 328 328 325 321 314 306 294 282 267 256 248 245 233 195 211 241 257 242 65 36 134 147 145 145 145 155 162 165 173 178 184 184 186 191 192 203 197 202 270 219 191 201 198 220 206 166 234 262 268 276 284 286 307 303 181 164 167 175 163 158 167 174 170 152 150 154 147 145 148 153 159 161 164 164 166 169
333 332 331 330 330 329 329 330 329 328 329 329 330 329 326 321 314 305 290 272 257 245 233 228 197 183 230 255 254 258 51 64 149 146 153 149 149 159 165 166 171 180 182 181 189 193 197 204 191 196 258 187 185 200 200 224 289 211 255 264 253 261 256 269 309 198 172 156 172 181 151 149 169 191 172 151 157 159 147 149 157 161 161 164 166 163 167 170
331 331 331 329 330 329 330 332 331 329 330 331 331 331 327 322 315 306 289 259 239 230 221 211 175 175 239 255 252 342 42 118 149 148 158 153 154 160 163 167 172 182 180 182 189 190 200 198 196 209 243 162 180 184 194 205 239 246 261 259 239 239 223 171 54 167 164 154 171 177 157 165 184 174 152 153 159 157 152 155 163 167 162 165 167 164 169 172
331 330 330 329 329 328 330 333 330 329 331 333 333 331 327 324 315 305 287 242 218 211 207 193 167 190 249 256 195 95 70 122 147 149 155 155 152 148 155 164 172 184 184 188 183 184 205 201 209 220 257 240 193 116 151 186 225 238 234 247 237 224 194 118 118 164 155 150 161 168 158 169 190 170 147 155 161 156 158 162 168 170 164 167 169 169 172 174
331 329 329 329 328 327 331 332 329 330 332 334 335 332 331 329 318 308 272 203 188 189 184 170 166 209 251 267 84 154 140 119 149 156 157 157 144 142 151 156 165 176 182 191 179 177 206 206 217 231 247 258 230 121 192 189 213 223 210 225 233 219 163 115 139 167 153 148 167 181 150 128 165 162 146 153 163 162 163 168 172 171 168 170 172 176 176 176
331 330 330 329 327 328 331 330 329 330 332 336 335 335 344 349 352 34 138 156 160 164 155 152 177 222 252 216 107 172 174 149 171 170 165 160 147 147 156 156 156 156 164 177 174 174 191 197 212 224 213 237 246 207 203 185 198 212 206 202 212 222 152 121 149 181 165 151 185 208 207 96 136 143 146 157 167 170 170 171 174 172 172 172 175 181 180 178
331 332 331 329 327 327 328 329 330 330 334 338 335 356 29 40 64 100 117 131 140 140 143 156 189 233 276 164 117 156 177 173 177 173 174 171 159 149 152 154 149 151 154 155 171 176 183 197 208 227 214 201 214 210 196 185 191 203 217 207 198 207 179 141 154 181 165 149 187 216 219 88 111 130 144 158 168 176 178 175 174 174 174 175 178 184 183 179
331 330 329 327 325 325 327 328 330 330 335 338 345 55 71 81 92 100 104 116 125 131 166 206 191 231 276 104 140 173 174 159 157 168 175 182 173 148 148 153 151 155 150 141 167 175 181 199 198 219 227 215 207 204 201 196 188 190 213 215 195 204 201 161 158 164 170 173 189 210 209 85 102 132 147 160 169 177 183 180 175 174 179 180 179 186 185 181
330 327 327 326 325 325 327 330 329 329 335 339 117 96 93 98 96 94 105 117 130 155 213 239 204 230 208 166 170 150 146 142 146 164 169 169 165 154 155 155 150 155 153 146 165 176 182 192 196 201 207 212 203 200 207 198 191 188 197 207 186 203 222 178 153 152 175 196 194 201 195 136 141 144 149 162 171 178 183 186 180 175 183 186 182 187 187 183
328 326 328 327 327 327 329 331 328 329 339 108 127 103 104 109 105 136 162 159 184 212 244 176 199 274 117 160 145 102 119 131 141 159 164 161 159 160 162 156 154 161 166 164 170 180 183 184 202 206 199 202 200 203 208 207 210 193 190 209 194 195 210 157 131 146 182 201 191 201 199 175 174 156 153 163 169 180 182 186 190 180 183 191 189 188 186 187
329 328 328 327 329 330 331 332 327 328 333 148 145 139 149 167 196 180 185 209 235 264 299 253 227 276 286 143 113 103 136 151 163 163 163 164 159 158 158 157 164 174 181 173 166 177 188 193 201 205 204 197 198 208 205 26 262 198 187 204 203 197 186 131 134 153 196 216 195 202 213 199 181 159 163 169 170 181 183 185 195 191 186 191 194 191 186 188
332 330 328 329 329 330 332 331 325 323 297 164 183 232 276 351 312 62 218 234 230 251 273 269 262 273 276 297 331 320 173 178 180 161 160 166 163 161 158 165 175 185 194 175 152 164 190 210 205 203 210 196 195 207 199 169 216 203 192 189 191 201 162 118 137 146 184 224 201 201 224 213 197 174 168 175 181 185 186 185 190 197 194 188 195 195 189 186
334 332 332 331 330 332 333 328 320 324 117 163 203 244 33 29 348 342 308 270 222 226 254 248 257 270 267 269 268 274 251 180 157 152 161 171 179 178 165 181 193 182 182 174 157 168 194 219 209 198 206 194 188 197 202 206 205 209 206 192 196 193 143 125 147 152 176 216 188 188 230 210 192 192 177 181 193 193 193 189 187 193 190 186 197 197 190 188
337 336 335 332 334 338 332 327 341 122 113 180 222 250 44 16 338 287 259 280 258 174 222 225 237 247 234 233 200 210 225 176 154 158 168 180 191 190 173 187 203 181 174 184 188 185 194 216 205 184 185 188 183 190 204 211 210 214 205 202 198 176 174 170 153 156 178 232 209 178 233 218 181 193 188 189 198 198 199 195 190 190 186 187 197 197 192 190
341 340 337 337 342 341 334 45 115 122 137 241 242 56 22 338 323 273 256 281 271 142 189 219 240 246 235 161 165 207 215 167 156 160 171 189 183 175 187 192 202 192 183 197 205 205 205 204 183 170 178 190 185 187 202 206 206 210 208 216 198 173 199 189 119 149 176 217 228 204 234 221 186 196 192 187 199 203 199 195 192 188 188 194 193 193 199 195
345 342 340 342 348 352 44 121 124 130 210 209 171 54 346 335 310 249 270 268 177 124 157 167 216 234 74 128 180 222 202 133 110 152 171 196 183 174 197 194 206 205 187 196 208 215 211 165 160 176 185 193 194 191 200 208 207 203 210 225 219 177 191 152 135 181 206 203 192 211 239 201 170 188 177 163 187 198 190 193 196 188 193 203 197 194 201 201
346 342 342 345 356 30 129 122 106 168 220 190 134 13 336 332 285 211 267 254 138 101 165 167 192 164 142 177 160 204 201 144 64 143 170 199 198 195 202 177 210 229 183 184 209 226 196 159 175 191 190 193 199 199 198 207 221 205 195 210 222 213 201 192 190 207 226 198 153 205 250 201 154 133 61 119 149 164 168 189 200 192 197 204 205 202 200 199
345 343 344 346 8 53 132 45 89 192 212 152 98 332 333 322 229 189 255 224 118 55 174 139 129 138 99 136 158 212 186 136 114 141 168 210 207 216 219 180 192 220 165 173 208 212 178 169 185 194 192 195 201 200 188 200 228 195 141 192 212 221 222 214 216 225 238 349 141 204 240 243 169 107 62 120 122 124 136 170 196 195 204 205 207 210 208 204
347 349 351 354 18 33 64 56 244 211 113 70 338 316 331 306 195 214 262 168 89 349 186 105 71 119 127 152 185 203 111 128 153 130 127 197 198 221 224 197 196 188 168 193 194 155 169 183 184 188 194 198 202 201 180 192 227 191 104 195 215 218 231 225 224 231 228 254 228 203 201 237 192 117 108 124 113 104 100 107 196 192 208 208 205 209 215 212
354 358 4 5 13 26 67 130 265 266 71 359 305 330 323 246 206 248 255 89 70 279 101 99 136 163 169 161 157 141 113 112 138 110 138 182 194 248 244 213 217 188 170 210 217 139 170 195 185 188 199 202 201 202 182 191 222 213 123 212 216 213 231 231 231 229 210 223 237 206 188 218 187 123 130 106 92 71 65 59 2 312 244 223 209 207 211 211
3 13 20 12 13 6 343 199 221 263 296 299 318 324 284 218 230 251 185 85 48 127 111 225 172 161 176 163 120 112 118 77 81 124 146 157 168 216 266 322 240 206 169 211 233 142 139 186 198 199 217 221 200 195 188 199 219 221 185 206 200 197 213 219 226 229 218 220 231 219 200 213 208 116 98 71 56 29 21 22 16 344 301 270 227 211 205 204
18 28 32 22 22 333 295 201 145 279 282 298 312 294 246 215 246 252 102 79 12 105 129 152 129 171 183 161 123 115 113 86 100 157 154 150 164 176 192 193 209 206 178 200 218 161 151 184 190 175 339 290 201 185 186 207 219 216 209 204 190 180 186 204 203 213 226 220 220 219 208 214 220 116 73 57 45 32 18 7 1 336 306 294 262 223 205 202
36 33 31 27 24 346 306 320 312 288 284 295 297 266 228 212 227 63 74 170 226 49 43 86 118 157 149 117 106 111 111 93 89 124 132 146 144 115 81 210 197 204 191 189 187 169 170 175 152 129 137 231 217 199 183 201 213 211 209 205 196 182 178 199 196 197 219 221 210 209 206 212 189 90 61 51 46 37 29 15 359 343 322 302 284 250 214 202
45 28 21 20 20 360 314 308 307 293 288 283 262 242 239 217 85 48 31 48 50 28 17 110 142 156 142 121 106 94 92 90 89 109 108 113 123 106 63 36 353 275 218 188 181 172 160 149 157 166 159 188 226 220 195 192 201 204 206 200 198 193 186 196 196 194 209 209 185 183 199 201 138 88 51 57 49 34 35 27 15 3 342 320 296 261 224 204
37 19 12 12 13 8 346 327 326 310 277 244 229 230 239 96 79 47 31 52 52 46 83 155 159 150 134 118 115 98 82 80 79 132 141 133 120 116 88 51 9 318 266 204 183 183 179 155 167 175 136 166 217 235 271 226 197 200 210 207 208 212 201 198 198 194 198 194 169 160 193 201 152 112 65 74 58 39 38 32 28 22 6 357 348 309 227 206
279 355 3 6 5 2 356 346 327 298 243 239 236 230 128 81 67 33 42 35 12 75 117 176 178 148 122 101 113 101 4 71 95 102 104 96 73 63 44 30 15 349 293 233 176 186 195 123 103 94 63 189 212 257 300 264 202 193 206 213 216 223 221 221 214 198 193 191 178 172 177 106 125 124 98 80 58 44 40 35 33 27 22 23 20 15 351 209
266 316 359 9 2 357 354 349 330 244 233 254 247 78 59 59 25 0 17 349 325 357 176 185 181 155 139 129 125 111 43 97 137 117 85 83 72 47 25 24 13 359 333 282 191 189 201 113 104 121 115 80 334 304 256 263 233 188 199 211 210 230 247 249 218 192 199 201 181 168 141 107 129 132 100 73 55 47 39 36 34 28 26 29 31 22 8 356
253 264 5 17 7 357 352 354 337 245 239 266 63 76 49 48 18 351 345 322 312 305 263 187 144 225 148 141 127 123 131 131 150 160 111 107 72 26 9 30 14 2 359 326 271 208 245 126 119 143 133 108 29 279 182 259 279 218 201 201 179 226 266 263 223 188 200 202 175 171 166 157 174 159 98 65 46 42 38 35 34 31 29 28 31 29 14 8
252 238 27 22 6 352 350 356 318 260 245 74 92 88 42 47 27 0 347 320 293 273 274 163 68 304 163 146 125 117 161 174 162 139 110 108 75 17 357 16 11 4 1 319 286 355 306 133 123 136 137 130 160 223 181 183 255 292 284 208 190 217 221 222 229 199 196 199 180 173 169 160 175 143 88 49 38 38 37 36 33 30 28 25 25 27 25 20
258 242 127 21 357 347 349 337 285 255 235 85 101 97 57 58 39 18 9 334 301 287 305 35 51 354 97 131 126 102 58 154 143 143 97 34 72 32 8 2 343 356 356 323 313 349 293 231 133 135 150 159 179 224 197 169 189 239 266 224 215 241 219 208 226 214 202 204 186 171 169 150 95 82 74 55 46 41 41 42 38 32 28 25 22 21 26 26
279 263 91 12 349 346 339 314 285 277 81 72 75 80 63 56 45 31 23 8 344 333 3 55 47 89 86 82 109 89 52 91 112 116 81 49 88 72 32 6 336 341 338 309 325 353 263 245 152 132 157 187 180 58 17 45 181 209 216 205 198 222 246 231 224 223 234 222 191 182 184 144 89 72 77 75 63 53 53 52 47 39 33 30 25 20 24 25
284 271 59 4 347 331 305 309 53 52 82 84 64 65 54 18 21 34 31 30 38 29 38 64 66 88 104 91 92 91 88 102 98 93 95 62 52 72 34 2 336 328 319 289 355 10 301 252 208 152 162 173 108 63 33 10 352 323 247 229 211 219 226 219 210 210 245 254 220 196 181 121 81 68 87 88 76 66 65 60 55 49 39 35 31 25 26 27
306 9 16 355 345 316 303 60 78 44 69 85 58 51 48 2 3 27 28 28 47 49 47 59 61 68 86 82 90 108 102 90 78 79 92 69 46 40 14 351 330 317 317 308 63 13 331 276 210 130 112 103 107 90 36 13 339 333 6 9 312 254 241 227 217 206 214 239 272 201 157 103 76 91 98 93 85 79 74 65 61 57 45 38 34 30 29 28
21 43 14 360 346 288 289 82 92 68 72 90 84 64 54 37 36 39 33 27 34 42 50 54 48 48 62 68 96 111 85 64 73 79 93 89 60 36 8 351 339 322 321 332 81 7 315 266 127 108 99 106 130 147 81 312 256 229 62 30 323 288 285 273 292 282 220 212 223 196 145 111 114 118 104 104 96 87 81 71 65 62 52 42 36 34 33 30
49 56 36 22 8 289 259 74 83 88 89 104 105 87 71 51 40 41 47 43 37 44 59 57 41 43 60 59 78 88 43 39 94 81 80 94 66 36 16 2 357 2 10 9 358 347 330 293 190 162 157 158 173 183 179 190 213 156 71 35 1 349 304 274 294 283 238 222 252 229 164 127 142 133 114 113 104 90 83 76 69 66 59 48 40 36 35 34
67 91 64 40 35 41 56 40 50 95 102 100 92 85 89 76 48 41 54 55 46 46 63 64 44 56 81 79 79 73 31 35 102 111 95 98 88 51 24 13 13 25 30 12 336 313 321 6 318 231 200 188 189 184 170 160 149 120 64 41 16 360 311 266 247 233 221 199 286 250 147 123 133 134 120 114 105 94 87 80 71 68 65 57 48 38 36 37
290 45 66 62 58 65 69 39 28 81 100 97 84 64 77 97 76 44 42 52 52 50 62 68 47 63 90 88 88 78 58 62 93 126 119 99 94 61 21 16 33 30 16 360 336 310 261 54 15 359 11 67 96 78 37 23 137 124 68 45 20 4 325 263 243 242 216 173 149 112 128 133 138 137 128 115 105 97 91 80 68 64 64 62 56 47 44 41
6 29 19 37 67 71 81 60 35 52 63 36 59 51 62 99 97 58 38 46 52 46 58 63 46 61 91 94 93 81 74 82 90 103 105 87 90 91 30 18 37 20 346 340 346 314 220 115 49 45 59 66 73 77 56 30 73 83 67 54 30 18 351 275 242 352 318 201 159 119 130 139 139 137 133 121 111 100 87 75 64 59 59 62 61 56 50 43
38 73 30 331 329 41 57 44 34 62 76 64 75 85 73 84 84 65 60 69 61 21 31 73 60 58 71 71 97 102 99 102 98 93 93 83 84 121 55 35 34 11 342 8 20 325 271 105 87 86 89 81 72 73 66 63 87 80 62 67 53 43 50 64 72 36 356 221 152 136 134 132 130 136 132 120 113 100 85 72 64 61 57 58 60 59 54 46
78 98 76 324 334 60 63 46 45 75 78 73 77 70 71 84 85 71 55 64 69 44 32 85 78 64 70 59 81 109 90 83 110 103 73 67 47 340 3 72 50 23 1 25 44 351 308 91 116 131 114 96 78 79 75 85 120 115 95 100 94 74 74 77 83 75 70 103 129 134 130 120 123 130 124 118 111 100 88 74 66 63 56 54 55 54 53 49
52 69 76 106 93 78 79 89 105 101 91 84 89 80 72 81 88 85 44 28 71 76 66 85 84 73 78 78 80 83 54 32 76 96 68 30 65 342 352 15 29 29 16 19 40 339 302 135 148 183 146 117 101 100 109 145 151 131 111 117 134 123 108 98 96 93 95 114 129 132 127 120 122 124 121 121 115 106 95 77 67 61 53 52 52 48 46 45
34 24 328 87 94 68 59 84 100 120 99 86 94 98 95 87 88 92 66 34 55 84 83 88 89 81 80 78 72 68 54 38 55 71 54 23 31 26 25 17 344 348 30 42 9 310 289 151 163 221 211 138 127 135 138 155 173 164 145 137 143 143 121 103 95 83 106 129 139 144 141 135 135 133 130 128 120 111 97 79 71 63 53 50 48 45 42 39
67 57 301 280 107 108 205 117 143 129 84 76 87 94 99 102 103 101 82 62 62 73 72 77 88 89 85 76 60 42 31 28 43 58 53 36 47 51 49 51 19 358 29 48 358 338 291 183 170 222 232 139 129 157 171 177 197 186 146 129 125 123 116 113 103 65 85 141 152 155 139 131 139 147 144 134 126 113 93 79 70 65 60 54 49 43 38 36